Regional Weather Roundup
Issued by NWS Burlington, VT

Current Version | Previous Version | Text Only | Print | Product List | Glossary Off
Versions: 1 2 3 4 5 6 7 8 9 10 11 12 13 14 15 16 17 18 19 20 21 22 23 24 25 26 27 28 29 30 31 32 33 34 35 36 37 38 39 40 41 42 43 44 45 46 47 48 49 50

000
ASUS41 KBTV 081230
RWRBTV
VERMONT REGIONAL WEATHER ROUNDUP
NATIONAL WEATHER SERVICE BURLINGTON VT
700 AM EST MON FEB 08 2016

NOTE: "FAIR" INDICATES FEW OR NO CLOUDS BELOW 12,000 FEET WITH NO
SIGNIFICANT WEATHER AND/OR OBSTRUCTIONS TO VISIBILITY.

* THESE REPORTS ARE NOT UNDER NWS QUALITY CONTROL AND/OR DO NOT
  REPORT WEATHER SUCH AS PRECIPITATION AND FOG.

VTZ001>019-081300-
_____VERMONT_____


CITY           SKY/WX    TMP DP  RH WIND       PRES   REMARKS
BURLINGTON     MOCLDY    19  11  70 N5        29.93F WCI  12
6HR MIN TEMP:  18; 6HR MAX TEMP:  19;

MONTPELIER     FAIR      20  16  84 CALM      29.91F
6HR MIN TEMP:  18; 6HR MAX TEMP:  20;

MORRISVILLE    FAIR      20  11  68 NE8       29.94F WCI  10
6HR MIN TEMP:  19; 6HR MAX TEMP:  23;

ST. JOHNSBURY*   N/A     21   6  52 MISG      29.92F
6HR MIN TEMP:  20; 6HR MAX TEMP:  22;

LYNDONVILLE*   FAIR      19  -6  33 NE18G28   29.92F WCI   3
6HR MIN TEMP:  18; 6HR MAX TEMP:  23;

RUTLAND*       FAIR      27  10  50 SE16      29.86S WCI  14
6HR MIN TEMP:  21; 6HR MAX TEMP:  30;

SPRINGFIELD    FAIR      24   5  44 E9        29.92R WCI  14
6HR MIN TEMP:  24; 6HR MAX TEMP:  31;

HIGHGATE*      FAIR      17  10  77 CALM      29.94F
6HR MIN TEMP:  15; 6HR MAX TEMP:  17;

NEWPORT*       FAIR      12   5  73 N8        29.95F WCI   0
6HR MIN TEMP:  12; 6HR MAX TEMP:  17;

BENNINGTON     FAIR      29  13  51 VRB6      29.83R WCI  23
6HR MIN TEMP:  29; 6HR MAX TEMP:  34;

GALLUP MILLS*    N/A     16 N/A N/A MISG        N/A
UNION VILLAGE*   N/A     25 N/A N/A MISG        N/A
MT. MANSFIELD*   N/A     14 N/A N/A SW18        N/A  WCI  -3

_____LAKE CHAMPLAIN_____


CITY           SKY/WX    TMP DP  RH WIND       PRES   REMARKS
COLCHESTER RF*   N/A     21  16  79 N13         N/A  WCI   9
DIAMOND ISL*     N/A     23  19  86 N15         N/A  WCI  10

$$

NYZ007-026>031-035-052-083-081300-
_____NORTHERN NEW YORK_____


CITY           SKY/WX    TMP DP  RH WIND       PRES   REMARKS
PLATTSBURGH    CLOUDY    17   7  64 NW6       29.95F WCI   9
6HR MIN TEMP:  15; 6HR MAX TEMP:  17;

SARANAC LAKE   CLOUDY    14  11  87 N3        29.80F
6HR MIN TEMP:  10; 6HR MAX TEMP:  17;

MASSENA        CLOUDY    17   6  62 E14       29.96S WCI   3
6HR MIN TEMP:  17; 6HR MAX TEMP:  18;

OGDENSBURG*    CLEAR     18  10  73 E9        29.91R WCI   6
POTSDAM*       CLEAR     16   9  73 E8        29.92S WCI   5
WATERTOWN      CLOUDY    20  15  81 NE10      29.84S WCI   9
6HR MIN TEMP:  20; 6HR MAX TEMP:  26;

ALBANY         CLOUDY    27  19  72 NE3       29.87R
6HR MIN TEMP:  26; 6HR MAX TEMP:  28;

GLENS FALLS    PTCLDY    24  17  74 NE6       29.88S WCI  17
6HR MIN TEMP:  23; 6HR MAX TEMP:  24;


$$
NHZ002-005-011-081300-
_____NEW HAMPSHIRE_____


CITY           SKY/WX    TMP DP  RH WIND       PRES   REMARKS
LEBANON        CLOUDY    26   9  48 NE6       29.91F WCI  19
6HR MIN TEMP:  24; 6HR MAX TEMP:  28;

MT WASHINGTON  MOCLDY    14   7  73 E31         N/A  WCI  -7
6HR MIN TEMP:  12; 6HR MAX TEMP:  21;

PLYMOUTH       FAIR      23  -9  24 E6        29.96R WCI  16
6HR MIN TEMP:  22; 6HR MAX TEMP:  28;

WHITEFIELD     CLOUDY    18 -11  27 E15G25    29.92F WCI   4
6HR MIN TEMP:  18; 6HR MAX TEMP:  27;


$$

_____REGIONAL QUEBEC LOCATIONS_____


CITY           SKY/WX    TMP DP  RH WIND       PRES   REMARKS
MONTREAL       MOCLDY    16   0  48 NE24G31   30.01S WCI  -3
QUEBEC CITY    FLURRIES  10   3  72 E14G24    30.19S WCI  -5
SHERBROOKE     CLEAR     10  -6  48 NE10G17   29.99F WCI  -3

_____REGIONAL ONTARIO LOCATIONS_____


CITY           SKY/WX    TMP DP  RH WIND       PRES   REMARKS
OTTAWA         CLOUDY    18   3  53 E15       29.93S WCI   3

______KEY______
VSB  - VISIBILITY IN MILES
WCI  - WIND CHILL INDEX
HX   - HEAT INDEX
$$
NNNN



USA.gov is the U.S. government's official web portal to all federal, state and local government web resources and services.